Regional Weather Roundup
Issued by NWS

Home | Current Version | Previous Version | Text Only | Print | Product List | Glossary Off
Versions: 1 2 3 4 5 6 7 8 9 10 11 12 13 14 15 16 17 18 19 20 21 22 23 24 25 26 27 28 29 30 31 32 33 34 35 36 37 38 39 40 41 42 43 44 45 46 47 48 49 50

000
ASUS43 KMKX 142020
RWRWI

WISCONSIN REGIONAL WEATHER ROUNDUP
NATIONAL WEATHER SERVICE MILWAUKEE/SULLIVAN WI
200 PM CST THU DEC 14 2017

NOTE: "FAIR" INDICATES FEW OR NO CLOUDS BELOW 12,000 FEET WITH NO
SIGNIFICANT WEATHER AND/OR OBSTRUCTIONS TO VISIBILITY.

WIZ001-002-006>008-014>016-023>028-142100-
NORTHWEST WISCONSIN

CITY           SKY/WX    TMP DP  RH WIND       PRES   REMARKS
SUPERIOR ARPT  LGT SNOW  20  12  72 W6        29.99S WCI  12
ASHLAND        CLOUDY    19  13  77 SW8       29.97F HAZE    WCI   9
HAYWARD        LGT SNOW  18  12  77 SW7       29.95F WCI   9
SIREN          CLOUDY    19  13  78 W9        29.99F WCI   8
CUMBERLAND     LGT SNOW  19  14  79 W8        29.97S WCI   9
RICE LAKE      FLURRIES  20  14  78 W3        30.00S
CHETEK         CLOUDY    21  15  78 W6        29.99S WCI  13
LADYSMITH      FLURRIES  21  16  79 W10       29.98S WCI  10
EAU CLAIRE     CLOUDY    23  13  65 W10G20    29.99F WCI  12
MENOMONIE      CLOUDY    24  16  71 SW10      30.01F WCI  13
NEW RICHMOND   LGT SNOW  21  15  77 SW8       30.00F WCI  11
OSCEOLA        FLURRIES  21  16  80 W7        30.04S WCI  13
$$

WIZ003>005-009-010-017-018-142100-
NORTH CENTRAL WISCONSIN

CITY           SKY/WX    TMP DP  RH WIND       PRES   REMARKS
MANITOWISH WTR LGT SNOW  15  12  88 W7        29.91S WCI   5
ARBOR VITAE    LGT SNOW  17  13  85 W5        29.91F WCI  10
WOODRUFF       LGT SNOW  17  13  85 W5        29.91F WCI  10
RHINELANDER    LGT SNOW  17  13  84 W7        29.92F FOG     WCI   8
EAGLE RIVER    LGT SNOW  15   9  76 W9        29.90F WCI   3
LAND O LAKES   FLURRIES  16  10  77 W5        29.92S WCI   8
PHILLIPS       LGT SNOW  18  15  88 SW5       29.92F WCI  11
TOMAHAWK       LGT SNOW  18  13  80 W3        29.94S
MEDFORD        FLURRIES  18  16  92 W7        29.94F WCI   8
MERRILL        FLURRIES  19  15  82 W7        29.96S WCI  10
$$

WIZ029-030-035-036-043>047-142100-
CENTRAL WISCONSIN

CITY           SKY/WX    TMP DP  RH WIND       PRES   REMARKS
WAUSAU         FLURRIES  19  14  81 W8        29.95F WCI   9
MOSINEE        LGT SNOW  19  16  86 W12       29.98F WCI   7
MARSHFIELD     FLURRIES  19  14  81 W8        29.96F WCI   9
STEVENS POINT  FLURRIES  19  12  73 W7        29.99F WCI  10
WAUPACA        CLOUDY    27  14  57 W8        30.01S WCI  19
WAUTOMA        CLOUDY    25  13  60 W8        30.02F WCI  16
WISC RAPIDS    CLOUDY    23  12  62 W5        30.01F WCI  17
CAMP DOUGLAS   PTSUNNY   25  12  58 W6        30.01F WCI  18
$$

WIZ011>013-019>022-031-037>040-048>050-142100-
NORTHEAST WISCONSIN

CITY           SKY/WX    TMP DP  RH WIND       PRES   REMARKS
ANTIGO         LGT SNOW  18  13  82 W5        29.94S WCI  11
SHAWANO        FLURRIES  24  16  71 W5        29.99S WCI  18
OCONTO         PTSUNNY   21  10  62 W8        30.00F WCI  11
STURGEON BAY   SUNNY     21  11  65 W9        29.99F WCI  11
GREEN BAY      SUNNY     20  10  65 W8        30.01S WCI  10
MANITOWOC      SUNNY     23  11  60 W7        30.03S WCI  15
APPLETON       PTSUNNY   21  10  63 SW9       29.99S WCI  11
CLINTONVILLE   CLOUDY    23  14  68 W7        30.00F WCI  15
OSHKOSH        MOSUNNY   21  11  65 W6        30.02S WCI  13
$$

WIZ032>034-041-042-053>061-142100-
SOUTHWEST WISCONSIN

CITY           SKY/WX    TMP DP  RH WIND       PRES   REMARKS
LA CROSSE      CLOUDY    26  13  57 S8        30.04F WCI  18
SPARTA         CLOUDY    27  14  58 W3        30.03F
VIROQUA        PTSUNNY   24  14  66 SW6       30.01F WCI  17
BOSCOBEL       SUNNY     28  11  48 SW6       30.05F WCI  22
PRAIRIE DU CHI SUNNY     28  10  46 SW3       30.05F
PLATTEVILLE    SUNNY     27  12  53 SW3       30.03F
$$

WIZ056-057-062-063-064-067-068-142100-
SOUTH CENTRAL WISCONSIN

CITY           SKY/WX    TMP DP  RH WIND       PRES   REMARKS
REEDSBURG      PTSUNNY   26  12  55 SW6       30.02F WCI  19
BARABOO/DELLS  PTSUNNY   25  11  55 W6        30.02F WCI  18
LONE ROCK      SUNNY     26  13  57 NW7       30.05F WCI  18
MINERAL POINT  SUNNY     28  14  54 SW3       30.01F
MADISON        MOSUNNY   26  10  50 W8        30.03F WCI  18
MIDDLETON      SUNNY     28  11  50 NW9       30.03F WCI  19
WATERTOWN      SUNNY     23  11  60 NW6       30.03F WCI  16
MONROE         SUNNY     27  10  50 CALM      30.02F
JANESVILLE     MOSUNNY   28   9  43 NW9       30.04S WCI  20
$$

WIZ051-052-058>065-066-070>072-142100-
SOUTHEAST WISCONSIN

CITY           SKY/WX    TMP DP  RH WIND       PRES   REMARKS
MILWAUKEE      MOSUNNY   24  10  55 W7        30.04F WCI  16
WAUKESHA       SUNNY     21   9  58 W9        30.04F WCI  11
MILWAUKEE/TIMM SUNNY     21   7  53 W7        30.05S WCI  13
RACINE         SUNNY     24  10  55 NW8       30.05F WCI  15
BURLINGTON     SUNNY     25  13  60 NW7       30.04S WCI  17
KENOSHA        MOSUNNY   25  11  55 NW10      30.03F WCI  15
FOND DU LAC    MOSUNNY   21   9  59 SW8       30.03S WCI  11
SHEBOYGAN      SUNNY     20  10  65 W6        30.02F WCI  12
WEST BEND      MOSUNNY   21  10  63 W7        30.03S WCI  13
JUNEAU         CLOUDY    21  10  64 SW6       30.04F WCI  13
$$

LSZ147-162-142100-
LAKE SUPERIOR

STATION/POSITION TIME  TEMP    WIND        PRES    WAVE
                       AIR SEA DIR/SP/G            HT/PER
                 (UTC) (F)     (DEG/KT/KT) (MB)    (FT/S)
DEVILS ISLAND    1900   20     250/ 10/ 13 1015.7F
SAXON HARBOR     1940   19                 1014.9S
$$

LMZ867-665-643>646-142100-
LAKE MICHIGAN

STATION/POSITION TIME  TEMP    WIND        PRES    WAVE
                       AIR SEA DIR/SP/G            HT/PER
                 (UTC) (F)     (DEG/KT/KT) (MB)    (FT/S)
NORTHPORT PIER   1956   23     310/  2/ 10 1014.9F
KEWAUNEE LAKESHO 1948   20     250/  5/ 10 1015.6R
SHEBOYGAN LAKESH 2000   21     290/  7/ 10 1018.1F
PORT WASHINGTON  1940   22     290/  6/ 11 1018.6S
MILWAUKEE LAKESH 1950   22     310/  7/  8   N/A
KENOSHA   LAKESH 2000   24     310/  9/ 11 1017.3
$$

TC  - TEMPERATURE IN CELSIUS
VSB - VISIBILITY IN STATUTE MILES
WCI - WIND CHILL INDEX
HX  - HEAT INDEX





USA.gov is the U.S. government's official web portal to all federal, state and local government web resources and services.